Wind_Speed
18 18 19 20 20 21 21 20 20 19 18 18 19 20 22 25 28 27 7 13 12 16 17 16 7 10 6 4 5 4 2 5 7 8 5 2 1 3 3 1 0 2 3 4 4
18 19 20 21 22 21 21 21 21 20 20 18 18 19 21 24 25 15 15 12 11 11 12 6 6 8 4 6 5 5 5 9 6 7 4 4 2 5 4 7 3 1 3 7 5
21 20 21 22 22 23 23 22 22 23 23 21 20 19 20 19 5 7 11 11 18 14 12 12 8 5 6 4 6 7 11 11 5 7 4 7 8 3 3 5 6 5 4 5 8
21 22 23 24 24 25 24 23 22 21 21 20 18 17 16 6 4 3 7 20 18 12 3 6 6 5 7 11 6 5 13 13 7 4 4 6 6 12 12 8 9 7 8 5 10
22 23 24 25 27 27 25 23 22 22 20 18 14 10 6 4 10 12 19 19 22 16 5 5 10 4 6 5 4 14 7 10 16 9 8 6 15 11 22 13 12 14 14 13 10
24 24 25 26 28 25 22 20 23 24 19 13 7 2 3 4 7 20 26 25 23 17 6 4 6 7 5 5 16 1 9 10 6 6 5 8 15 5 5 8 12 13 16 11 11
26 26 27 28 28 25 21 21 23 23 15 8 2 4 4 13 15 22 20 12 16 15 4 11 12 4 2 3 6 4 6 3 7 6 9 8 20 28 20 13 19 21 19 15 15
24 25 27 28 27 24 21 20 19 20 12 8 5 4 7 19 17 15 9 13 18 20 15 20 14 4 7 5 4 4 5 16 14 9 6 10 29 20 9 16 21 21 16 15 15
25 26 26 27 27 25 23 23 20 20 6 8 5 3 10 15 9 18 12 7 18 11 9 14 5 7 4 5 4 4 16 9 5 8 10 13 31 7 7 8 13 11 11 12 14
25 26 25 26 24 23 20 24 22 9 7 4 2 1 7 9 16 17 15 15 3 6 4 4 5 4 4 7 13 9 5 2 5 5 15 14 32 14 10 12 17 11 14 13 10
26 26 25 23 22 17 18 10 8 5 4 6 9 5 17 13 26 7 13 3 4 4 4 4 4 14 15 16 5 4 2 1 3 4 4 17 21 16 10 11 16 18 19 20 20
25 26 26 21 18 8 11 3 5 6 8 12 13 10 21 10 6 6 1 2 2 4 2 5 10 8 5 7 10 6 1 3 5 8 4 7 12 9 8 13 14 18 17 14 13
28 26 25 18 8 2 8 1 9 8 2 8 6 4 9 4 5 7 1 1 3 4 4 6 8 3 7 5 5 4 9 3 6 8 12 8 18 12 8 12 16 17 15 15 15
28 26 22 17 1 8 5 3 16 2 3 5 5 3 9 11 3 6 4 4 2 4 3 5 7 6 6 9 7 5 3 1 2 3 8 2 9 15 15 18 14 12 14 14 12
31 27 20 10 8 3 4 12 11 4 4 11 4 3 15 2 8 3 9 2 6 7 3 11 4 3 5 6 7 9 8 8 7 6 3 3 5 13 5 11 12 16 19 18 17
35 28 17 3 5 8 11 16 3 5 4 7 6 12 14 8 8 5 7 4 3 5 7 24 3 5 7 7 9 6 6 4 1 2 7 7 6 21 9 12 7 14 13 12 11
37 18 6 5 2 11 16 3 4 4 4 5 8 12 17 5 9 5 10 7 2 5 5 10 14 11 5 3 2 5 5 2 1 2 12 12 9 24 4 6 4 9 9 10 9
27 9 1 5 6 13 5 5 5 1 5 5 9 16 4 6 5 7 7 5 2 7 4 3 2 6 5 11 7 7 7 5 6 6 5 6 12 8 11 13 10 6 9 10 11
20 6 3 6 5 6 5 4 5 4 3 6 13 3 4 4 3 6 4 3 4 6 5 2 4 4 2 2 9 4 4 7 3 3 1 5 7 8 16 10 8 8 9 11 11
11 8 6 7 3 5 5 2 3 4 5 5 3 3 4 6 6 6 4 2 4 3 3 3 4 7 6 4 5 4 4 3 1 4 5 6 6 6 6 2 4 8 11 13 7
6 3 8 5 3 5 3 4 5 5 6 3 4 4 7 7 4 4 5 7 1 5 6 4 0 5 2 3 4 1 1 2 2 5 4 2 5 6 15 4 8 10 11 13 6
6 2 9 5 4 1 1 5 6 6 1 5 5 8 7 4 5 4 6 3 4 3 5 1 1 4 5 5 5 2 3 1 4 8 4 3 6 6 6 7 8 13 11 6 4
3 3 6 5 2 3 5 5 4 4 5 3 4 3 3 3 5 4 6 4 7 2 4 1 1 3 5 3 5 2 3 3 1 0 5 4 7 5 9 14 13 11 8 3 5
2 4 4 4 1 2 4 7 5 5 6 3 5 5 3 4 7 6 8 6 3 2 8 1 2 5 5 2 2 4 8 8 3 3 5 10 9 22 19 12 16 14 7 3 6
3 1 1 4 3 5 4 5 8 6 3 3 3 4 9 7 12 14 13 7 7 5 1 4 4 3 8 11 8 7 13 13 15 13 8 3 2 16 14 15 17 11 6 5 9
2 3 3 3 5 4 4 3 8 8 5 10 7 15 13 13 13 21 18 8 9 5 7 6 4 2 11 10 11 14 17 16 15 19 16 14 15 16 17 11 12 10 10 8 10
3 1 2 4 4 2 3 4 8 14 7 9 15 16 15 18 12 19 19 21 13 5 6 5 2 1 4 5 4 11 16 21 18 14 13 14 11 15 13 12 7 8 9 10 11
Wind_Direction
357 352 348 346 345 344 341 338 333 333 331 330 332 331 330 331 328 319 266 259 281 293 300 304 243 204 186 181 176 133 129 221 215 176 245 210 286 257 258 182 122 111 130 234 355
356 352 349 345 343 339 335 331 330 329 326 326 327 329 329 332 317 285 294 296 300 325 298 270 222 182 212 191 194 165 179 217 203 202 230 263 281 318 357 344 255 194 229 315 51
354 351 346 342 339 335 331 328 325 323 322 324 328 330 332 335 303 230 135 5 342 336 278 243 270 220 212 193 196 192 221 219 236 217 235 283 311 316 331 288 227 265 281 350 335
349 346 343 339 336 333 328 323 320 316 315 316 321 329 336 340 322 83 238 312 352 360 233 207 236 208 192 206 199 219 222 218 226 223 255 244 291 297 283 239 289 300 288 295 279
349 346 343 340 337 334 329 326 326 324 316 311 313 331 0 350 254 317 322 320 331 345 333 216 219 196 192 214 187 234 210 222 241 240 240 277 258 258 275 290 296 292 278 269 263
347 344 342 341 341 342 339 342 345 336 319 308 304 295 207 264 286 317 318 317 319 319 285 244 229 223 278 212 203 165 221 238 243 230 243 248 269 238 235 251 252 256 266 266 247
344 343 345 343 341 343 342 347 353 353 345 328 268 208 250 246 301 315 317 312 340 304 269 237 243 258 264 298 244 256 276 261 219 220 235 212 266 251 248 253 263 265 264 264 258
340 340 343 344 344 343 342 345 344 347 346 2 150 174 249 292 313 312 326 316 335 329 235 253 247 238 195 293 307 201 170 242 236 180 239 159 257 251 211 227 245 250 250 255 260
340 340 344 344 344 342 340 341 342 338 342 41 111 124 274 312 288 311 278 287 316 342 277 260 179 201 152 196 346 240 237 217 247 214 198 192 252 203 204 219 249 259 266 252 257
339 340 345 344 345 342 346 341 337 350 11 9 110 287 275 309 307 302 300 273 219 323 318 177 227 195 163 175 213 218 233 194 193 212 197 207 245 254 271 265 264 257 256 262 262
340 338 340 342 344 345 356 358 11 348 31 266 264 245 276 278 301 278 300 217 161 82 335 260 194 217 215 224 252 38 68 83 335 265 216 224 250 253 252 261 262 264 265 266 268
341 337 335 337 342 349 5 52 114 286 300 292 262 243 265 264 292 309 344 187 171 191 356 331 258 240 235 207 248 270 280 248 266 258 227 284 280 275 259 257 248 254 257 259 264
348 339 334 338 344 339 341 348 339 339 241 295 251 265 279 284 288 292 311 301 241 176 218 201 263 319 208 214 213 206 229 226 221 296 286 291 283 271 248 241 249 256 257 256 251
346 337 335 339 61 331 299 321 330 190 48 282 327 331 356 316 273 319 232 243 271 241 249 210 252 228 244 233 221 217 175 300 315 177 257 45 283 279 271 262 252 253 253 250 239
343 332 328 325 295 274 307 324 324 138 352 311 342 310 328 318 274 288 297 238 253 272 342 270 224 233 225 209 182 247 194 226 236 267 310 260 304 273 217 258 256 253 255 251 242
341 328 317 280 258 300 313 329 111 47 270 333 326 333 342 311 312 292 313 221 264 258 241 241 258 187 223 244 215 205 179 180 156 130 257 205 191 277 243 250 232 243 251 255 256
343 332 252 199 257 319 334 53 40 112 338 317 315 328 326 290 314 317 328 324 42 312 12 322 228 236 229 238 236 188 119 129 127 187 233 176 190 236 254 309 238 275 269 259 253
350 7 17 233 290 317 2 54 75 253 270 289 308 310 282 352 293 304 315 327 212 238 229 286 225 178 201 199 193 201 172 166 171 188 227 142 226 245 226 249 271 280 261 274 268
354 1 33 4 340 344 61 51 201 225 264 309 319 300 283 311 275 342 301 274 313 74 327 246 289 332 327 257 155 172 163 214 24 287 124 213 277 286 280 281 282 298 298 287 277
352 344 16 355 9 18 67 267 231 229 298 296 250 290 286 312 324 350 296 268 349 352 190 308 302 140 272 342 269 163 170 106 316 208 229 250 256 236 292 339 331 330 295 280 275
9 42 0 343 325 45 118 248 283 277 316 278 245 265 260 303 278 275 272 297 125 309 330 3 155 295 346 203 211 23 261 223 198 177 210 297 267 228 221 324 351 313 301 312 193
356 43 358 6 45 65 26 310 295 283 291 279 279 253 247 291 277 268 250 215 334 319 307 4 302 277 263 274 332 4 293 257 198 243 264 123 286 313 77 52 9 336 333 349 117
360 292 5 11 70 335 304 298 276 302 315 292 275 259 12 296 294 262 274 305 333 295 251 217 257 311 326 14 39 359 315 268 223 303 218 224 245 257 338 6 341 332 324 34 139
8 355 332 38 88 124 306 316 297 289 282 300 274 276 299 266 237 271 265 297 273 263 274 260 205 214 214 230 165 292 294 306 221 254 263 245 299 280 301 340 330 329 306 158 166
26 326 241 305 321 315 269 281 282 305 279 265 263 228 295 295 289 265 266 272 268 272 39 155 240 231 261 273 280 256 266 276 271 253 254 311 269 286 309 311 300 304 277 186 172
45 23 353 287 286 277 273 266 289 318 306 299 257 306 301 281 274 286 282 259 256 203 184 184 244 305 287 259 250 264 264 250 255 254 259 258 270 279 275 278 281 301 296 199 176
357 357 112 278 295 359 250 302 307 313 278 270 290 299 293 288 293 282 271 266 248 215 200 176 208 188 255 242 300 274 253 250 248 225 218 234 245 260 275 277 282 303 284 205 186
Height
823 821 818 815 812 808 805 802 801 798 796 795 791 788 784 779 773 769 765 761 761 760 760 759 760 762 762 761 762 764 785 790 776 770 755 739 746 727 721 723 723 719 721 720 721
823 820 817 813 810 807 804 801 799 796 795 794 792 787 784 778 773 767 760 758 760 759 756 758 759 760 764 760 760 767 783 773 754 749 748 741 742 736 732 734 727 722 717 718 721
822 820 817 814 810 806 802 799 795 792 791 789 787 786 783 778 776 761 757 757 757 754 755 757 756 757 763 759 755 757 758 750 744 741 740 741 741 730 734 739 725 726 720 720 720
823 820 816 811 808 804 800 796 794 792 790 788 786 785 782 780 777 756 757 755 753 752 751 753 755 757 761 758 749 758 744 741 739 738 741 743 736 734 726 728 718 717 717 719 723
822 818 814 809 805 800 796 793 791 788 786 783 783 784 782 781 768 757 755 753 753 754 753 753 754 751 755 752 747 746 741 739 735 735 736 737 735 737 723 718 714 715 715 718 719
820 816 812 808 802 798 794 791 788 784 782 781 782 784 785 787 756 754 752 752 752 752 750 752 748 747 748 747 743 736 737 740 737 738 738 739 732 736 719 717 717 717 713 712 713
819 814 810 805 801 796 792 789 786 781 777 777 779 780 780 769 756 755 753 750 749 749 749 747 745 749 742 744 737 737 744 740 742 740 740 735 738 722 716 717 715 711 708 706 703
818 813 808 804 799 795 790 787 784 781 778 776 776 779 773 754 752 749 748 747 746 744 745 745 745 745 746 739 737 740 742 748 729 738 732 732 724 703 705 711 710 705 703 701 697
816 811 806 802 797 793 788 784 781 778 776 775 777 778 772 753 749 744 743 743 742 741 741 741 743 742 741 749 753 745 737 745 738 723 729 729 707 707 702 707 706 703 701 699 694
813 808 803 799 795 791 788 782 778 777 776 776 778 782 761 755 749 745 742 739 739 739 738 742 743 743 744 746 744 741 747 733 737 725 724 730 705 708 706 705 700 703 697 693 691
813 807 802 797 794 791 789 785 785 783 780 780 773 772 762 753 748 743 739 739 734 740 748 741 747 737 729 730 731 734 737 738 732 723 724 723 713 710 707 705 700 695 691 686 682
811 806 800 796 794 792 791 792 796 799 791 771 767 767 757 754 751 741 739 741 737 743 743 749 745 733 730 732 734 736 740 742 734 725 727 726 722 714 709 701 694 689 687 685 682
809 804 798 794 791 792 791 792 792 790 794 774 763 761 756 753 748 743 740 738 739 740 741 749 738 729 728 729 733 735 739 739 740 727 719 727 714 708 697 691 685 680 678 675 674
806 802 797 792 793 791 789 789 788 786 802 777 763 759 756 751 747 738 737 740 736 736 735 739 729 729 730 729 731 741 728 729 729 736 742 723 729 703 694 687 682 680 673 669 669
803 798 795 792 790 789 788 786 783 785 807 772 765 759 758 758 751 738 734 735 736 731 733 730 723 724 729 727 723 730 725 732 734 738 739 731 743 683 681 683 679 671 662 659 656
797 793 790 789 788 785 784 783 783 801 810 778 769 767 764 757 749 739 737 730 730 731 732 725 718 720 720 717 717 717 724 731 733 742 751 730 738 684 685 671 669 662 659 654 652
792 785 785 787 786 783 782 781 801 810 785 780 776 769 768 764 753 744 741 738 740 746 737 727 719 712 712 719 717 720 733 755 758 758 736 714 730 680 670 666 663 663 655 652 647
789 786 785 785 785 783 782 793 818 789 789 777 773 769 774 763 757 749 745 747 735 743 734 736 723 712 706 714 719 725 728 742 736 738 725 709 714 684 662 653 650 652 651 647 642
787 786 786 786 785 784 790 810 807 793 782 779 774 774 776 764 763 758 750 744 736 743 742 728 729 711 709 705 708 716 726 713 723 719 726 713 689 672 654 654 653 652 648 644 638
790 788 788 787 786 785 800 797 794 784 778 778 786 779 780 769 768 765 755 740 738 736 735 729 728 715 713 710 704 706 705 721 733 725 723 705 694 683 665 665 655 655 651 640 633
792 792 790 788 788 795 814 804 790 779 779 779 780 782 776 769 765 764 752 740 736 735 736 737 737 722 714 712 713 711 712 712 718 722 714 706 695 667 657 659 661 658 646 638 635
800 799 790 787 801 815 814 799 789 780 777 776 772 770 772 768 768 763 753 741 736 737 740 737 745 739 723 713 712 713 712 712 721 710 709 715 702 658 659 660 661 654 648 643 639
808 805 791 789 820 821 807 798 791 783 781 778 776 771 770 772 772 759 750 739 739 739 741 739 748 746 725 719 718 719 714 714 719 722 716 710 693 656 652 658 657 655 648 646 643
810 811 803 802 809 808 802 790 794 782 780 778 776 771 772 773 764 760 749 739 737 735 731 739 751 744 749 722 726 730 720 718 717 727 703 694 693 664 660 670 659 653 651 648 644
815 817 814 817 812 810 802 792 788 786 781 776 776 772 771 767 757 752 744 740 735 732 738 744 747 745 738 730 724 722 719 715 712 704 713 699 698 674 675 671 661 655 649 649 646
822 822 818 816 811 806 799 790 782 780 784 774 774 767 768 762 755 748 747 744 739 735 739 740 740 735 729 722 720 717 705 707 706 703 699 700 696 678 668 663 659 652 646 647 645
819 820 820 813 811 811 804 789 788 785 777 772 771 769 760 750 743 739 736 732 736 736 736 734 734 736 738 714 715 718 701 695 687 684 688 696 685 671 668 661 656 650 645 642 642